Flight Track Log - Related Links

Times and Time Zones

All times are in EDT time to prevent confusion due to time zone crossing. See the JBU2101 flight status page for this flight to view local times or setup timezone preferences in your user account.

Time Position Orientation Groundspeed Altitude Reporting Facility
EDT Latitude Longitude Course Direction KTS MPH feet Rate Location/Type
07:20AM 42.9333 -78.7500 206° Southwest 146 168 1,800  Level Buffalo TRACON
07:21AM 42.8833 -78.7833 206° Southwest 201 231 4,400 2,597 Climbing Buffalo TRACON
07:22AM 42.8361 -78.7100 131° Southeast 294 338 7,600 2,677 Climbing Cleveland Center
07:24AM 42.8461 -78.6114 82° East 305 351 10,200 2,098 Climbing Cleveland Center
07:25AM 42.8447 -78.4778 91° East 358 412 11,900 2,439 Climbing Cleveland Center
07:26AM 42.8422 -78.2997 91° East 388 447 15,200 3,097 Climbing Cleveland Center
07:27AM 42.8400 -78.1489 91° East 395 455 18,300 2,565 Climbing Cleveland Center
07:28AM 42.8372 -77.9931 91° East 410 472 20,500 1,317 Climbing Cleveland Center
07:29AM 42.8356 -77.8314 91° East 424 488 21,000 244 Climbing Cleveland Center
07:30AM 42.8333 -77.6675 91° East 424 488 21,000  Level Cleveland Center
07:31AM 42.8311 -77.5025 91° East 425 489 21,000  Level Cleveland Center
07:32AM 42.8272 -77.3411 92° East 425 489 21,000  Level Cleveland Center
07:33AM 42.8244 -77.1808 91° East 425 489 21,000  Level Cleveland Center
07:34AM 42.8208 -77.0200 92° East 425 489 21,000  Level Cleveland Center
07:35AM 42.7603 -76.8494 116° Southeast 422 486 21,000  Level Cleveland Center
07:36AM 42.7236 -76.7686 122° Southeast 416 479 21,000  Level Boston Center
07:37AM 42.6633 -76.6331 121° Southeast 416 479 21,000  Level Boston Center
07:38AM 42.6022 -76.4975 121° Southeast 418 481 21,000  Level Boston Center
07:39AM 42.5422 -76.3622 121° Southeast 418 481 21,000  Level Boston Center
07:40AM 42.4808 -76.2264 121° Southeast 419 482 21,000  Level Boston Center
07:41AM 42.4078 -76.0639 121° Southeast 419 482 21,000  Level Boston Center
07:42AM 42.3467 -75.9300 122° Southeast 420 483 21,000  Level Boston Center
07:43AM 42.2889 -75.8044 122° Southeast 420 483 21,000  Level Boston Center
07:44AM 42.2278 -75.6722 122° Southeast 420 483 21,000  Level Boston Center
07:45AM 42.1656 -75.5350 121° Southeast 421 484 21,000  Level Boston Center
07:46AM 42.1036 -75.4025 122° Southeast 421 484 21,000  Level Boston Center
07:47AM 42.0494 -75.2622 117° Southeast 423 487 21,000  Level Boston Center
07:48AM 42.0100 -75.1106 109° East 430 495 21,000  Level Boston Center
07:49AM 41.9725 -74.9600 108° East 428 493 21,000  Level Boston Center
07:50AM 41.9325 -74.8097 110° East 427 491 21,000  Level Boston Center
07:51AM 41.8831 -74.6281 110° East 428 493 21,000 -98 Level Boston Center
07:52AM 41.8433 -74.4769 109° East 428 493 20,800 -492 Descending Boston Center
07:53AM 41.8086 -74.3456 109° East 427 491 20,000 -393 Descending Boston Center
07:54AM 41.7108 -74.2442 142° Southeast 402 463 20,000  Level Boston Center
07:55AM 41.6114 -74.1889 157° South 392 451 20,000  Level Boston Center
07:56AM 41.5111 -74.1336 158° South 391 450 20,000  Level Boston Center
07:57AM 41.4108 -74.0828 159° South 390 449 20,000  Level Boston Center
07:58AM 41.3072 -74.0914 184° South 370 426 20,000  Level Boston Center
07:59AM 41.2044 -74.1031 185° South 370 426 20,000  Level Boston Center
08:00AM 41.1167 -74.1167 187° South 370 426 20,000 -541 Level New York TRACON
08:01AM 41.0000 -74.1333 186° South 366 421 19,000 -500 Descending New York TRACON
08:02AM 40.9167 -74.1000 163° South 328 377 19,000  Level New York TRACON
08:03AM 40.8333 -74.0167 143° Southeast 349 402 19,000 -150 Level New York TRACON
08:04AM 40.7500 -74.0000 171° South 327 376 18,700 -789 Descending New York TRACON
08:05AM 40.6833 -73.9833 169° South 328 377 17,500 -1,316 Descending New York TRACON
08:06AM 40.5833 -73.9667 173° South 320 368 16,200 -1,316 Descending New York TRACON
08:07AM 40.5167 -73.9500 169° South 312 359 15,000 -1,316 Descending New York TRACON
08:08AM 40.4500 -73.8667 136° Southeast 314 361 13,700 -1,750 Descending New York TRACON
08:09AM 40.3833 -73.8000 143° Southeast 309 356 11,500 -2,155 Descending New York TRACON
08:09AM 40.3706 -73.7239 102° East 305 351 10,000 -1,962 Descending New York Center
08:10AM 40.4206 -73.6389 52° Northeast 267 307 8,100 -1,270 Descending New York Center
08:12AM 40.5000 -73.5667 35° Northeast 261 300 7,100 -692 Descending New York TRACON
08:13AM 40.5500 -73.5000 45° Northeast 244 281 6,600 -1,050 Descending New York TRACON
08:14AM 40.6000 -73.4500 37° Northeast 234 269 5,000 -1,300 Descending New York TRACON
08:15AM 40.6500 -73.4000 37° Northeast 233 268 4,000 -556 Descending New York TRACON
08:15AM 40.7000 -73.4000 360° North 232 267 4,000  Level New York TRACON
08:16AM 40.7500 -73.4333 333° Northwest 186 214 4,000 -286 Level New York TRACON
08:18AM 40.7833 -73.4833 311° West 178 205 3,400 -476 Descending New York TRACON
08:19AM 40.7833 -73.5333 270° West 174 200 3,000 -450 Descending New York TRACON
08:20AM 40.7667 -73.6000 252° West 159 183 2,500 -450 Descending New York TRACON
08:21AM 40.7500 -73.6500 246° West 158 182 2,100 -250 Descending New York TRACON
08:22AM 40.7167 -73.6833 217° Southwest 146 168 2,000 -429 Descending New York TRACON
08:23AM 40.6833 -73.7167 217° Southwest 109 125 1,200 -619 Descending New York TRACON
08:24AM 40.6667 -73.7333 217° Southwest 110 127 700 -500 Descending New York TRACON

Login

Don't have an account? Register now (free) for customized features, flight alerts, and more!